This is the latest recevied weather packets stored in our database for station/object KN6DHD. If no packets are shown the sender has not sent any weather packets the latest 10 day(s).
| Time | Temp. | Humidity | Pressure | Rain* | Wind** | Luminosity | Snow |
|---|---|---|---|---|---|---|---|
| 1776994315 | 22.78° C | 40% | 1015.1 hPa | 0 mm | - | 41 W/m² | - |
| 1776994013 | 22.78° C | 41% | 1015.1 hPa | 0 mm | - | 33 W/m² | - |
| 1776993710 | 23.33° C | 40% | 1015 hPa | 0 mm | - | 115 W/m² | - |
| 1776993407 | 23.33° C | 40% | 1015.1 hPa | 0 mm | - | 120 W/m² | - |
| 1776993104 | 23.33° C | 40% | 1014.9 hPa | 0 mm | - | 37 W/m² | - |
| 1776992801 | 23.33° C | 39% | 1015.3 hPa | 0 mm | - | 147 W/m² | - |
| 1776992497 | 23.89° C | 40% | 1015.2 hPa | 0 mm | - | 159 W/m² | - |
| 1776992195 | 23.33° C | 39% | 1015.3 hPa | 0 mm | - | 124 W/m² | - |
| 1776991890 | 23.33° C | 40% | 1015.3 hPa | 0 mm | - | 183 W/m² | - |
| 1776991588 | 23.33° C | 42% | 1015.4 hPa | 0 mm | - | 196 W/m² | - |
| 1776991284 | 23.33° C | 41% | 1015.5 hPa | 0 mm | - | 44 W/m² | - |
| 1776990980 | 23.33° C | 41% | 1015.5 hPa | 0 mm | - | 49 W/m² | - |
| 1776990677 | 23.33° C | 42% | 1015.6 hPa | 0 mm | - | 47 W/m² | - |
| 1776990375 | 23.89° C | 40% | 1015.7 hPa | 0 mm | - | 108 W/m² | - |
| 1776990070 | 24.44° C | 41% | 1015.9 hPa | 0 mm | - | 275 W/m² | - |
| 1776989770 | 24.44° C | 37% | 1015.6 hPa | 0 mm | - | 288 W/m² | - |
| 1776989466 | 24.44° C | 36% | 1015.6 hPa | 0 mm | - | 294 W/m² | - |
| 1776989163 | 25° C | 36% | 1015.6 hPa | 0 mm | - | 316 W/m² | - |
| 1776988859 | 25° C | 36% | 1015.9 hPa | 0 mm | - | 383 W/m² | - |
| 1776988557 | 24.44° C | 34% | 1015.6 hPa | 0 mm | - | 457 W/m² | - |
| 1776988253 | 24.44° C | 37% | 1015.8 hPa | 0 mm | - | 475 W/m² | - |
| 1776987949 | 24.44° C | 38% | 1015.7 hPa | 0 mm | - | 497 W/m² | - |
| 1776987645 | 24.44° C | 38% | 1016 hPa | 0 mm | - | 436 W/m² | - |
| 1776987344 | 23.89° C | 40% | 1015.9 hPa | 0 mm | - | 418 W/m² | - |
| 1776987039 | 24.44° C | 39% | 1016.1 hPa | 0 mm | - | 428 W/m² | - |
* Rain latest hour (hover to see other rain measurements)
** Current wind speed in m/s (hover to see current wind gust speed)